Regional Weather Roundup
Issued by NWS

Home | Current Version | Previous Version | Text Only | Print | Product List | Glossary Off
Versions: 1 2 3 4 5 6 7 8 9 10 11 12 13 14 15 16 17 18 19 20 21 22 23 24 25 26 27 28 29 30 31 32 33 34 35 36 37 38 39 40 41 42 43 44 45 46 47 48 49 50

342
ASUS45 KBOU 251510
RWRCO

WEATHER ROUNDUP FOR COLORADO
NATIONAL WEATHER SERVICE DENVER/BOULDER CO
900 AM MDT SUN SEP 25 2016

NOTE: "FAIR" INDICATES FEW OR NO CLOUDS BELOW 12000 FEET WITH NO
SIGNIFICANT WEATHER AND/OR OBSTRUCTIONS TO VISIBILITY.

COZ001>005-013-030-031-251600-
...NORTHWEST COLORADO...

CITY           SKY/WX    TMP DP  RH WIND       PRES   REMARKS
CRAIG          FOG       36  35  96 CALM      30.53R VSB<1/4
HAYDEN         FAIR      39  36  87 E7        30.52R
MEEKER         FAIR      40  38  93 S3        30.52R
MOUNT WERNER   NOT AVBL
STEAMBOAT SPGS CLOUDY    38  38  99 CALM      30.53R VSB 1
WALDEN           N/A     37  34  87 SE3       30.56R
$$

COZ006>008-011-251600-
...WEST CENTRAL VALLEYS...

CITY           SKY/WX    TMP DP  RH WIND       PRES   REMARKS
GRAND JUNCTION FAIR      48  40  73 CALM      30.45R
MONTROSE       FAIR      46  38  73 SE6       30.50R
EAGLE          MOSUNNY   41  36  81 CALM      30.56R
RIFLE          FAIR      46  41  82 N5        30.49S
DELTA          NOT AVBL
NUCLA          FAIR      46  36  66 CALM      30.48S
$$

COZ017>023-064>068-251600-
...SOUTHWEST COLORADO...

CITY           SKY/WX    TMP DP  RH WIND       PRES   REMARKS
DURANGO        FAIR      48  32  53 CALM      30.41R
CORTEZ         FAIR      46  36  68 CALM      30.39R
PAGOSA SPRINGS FAIR      49  31  49 CALM      30.45R
TELLURIDE      NOT AVBL
WOLF CREEK PAS FAIR      32  25  74 MISG      30.64R
$$

COZ009-010-012-014-032>034-037-058>063-251600-
...CENTRAL COLORADO...

CITY           SKY/WX    TMP DP  RH WIND       PRES   REMARKS
ASPEN          FAIR      42  37  82 N3        30.52R
BUENA VISTA    FAIR      43  28  54 CALM      30.52S
COPPER MTN     CLOUDY    32  28  86 MISG      30.62R
BERTHOUD PASS  CLOUDY    21   9  58 N15G21    30.62R WCI   8
COTTONWOOD PAS FAIR      43  27  52 E6        30.57R
GUNNISON       FAIR      38  31  76 NE5       30.54S
KREMMLING      FAIR      41  32  70 CALM      30.56R
LEADVILLE      FAIR      35  24  64 CALM      30.56R
MONARCH PASS   FAIR      32  27  80 E6        30.72R WCI  26
SALIDA         FAIR      43  30  59 CALM      30.60S
SUNLIGHT       FAIR      32  32 100 E7        30.63R WCI  26
WILKERSON PASS FAIR      32  27  80 CALM      30.63R
$$

COZ069>075-251600-
...SAN LUIS VALLEY/SANGRE DE CRISTO MOUNTAINS...

CITY           SKY/WX    TMP DP  RH WIND       PRES   REMARKS
ALAMOSA        FAIR      45  30  55 NW5       30.49R
LA VETA PASS   FAIR      39  30  70 MISG      30.58R
SAGUACHE       NOT AVBL
$$

COZ035-036-038>040-251600-
...NORTHERN COLORADO FRONT RANGE...

CITY           SKY/WX    TMP DP  RH WIND       PRES   REMARKS
DENVER INTL AP FAIR      53  32  44 NE8       30.47R
DMNS CITY PARK NOT AVBL
AURORA         MOSUNNY   52  31  45 NE9       30.48R
FRONT RANGE AP MOSUNNY   55  32  41 NE12G18   30.48R
ERIE MUNI ARPT FAIR      54  33  44 SE5       30.47R
BOULDER MUN AP FAIR      52  36  54 CALM      30.46R
CENTENNIAL     FAIR      50  31  48 SE6       30.49R
BROOMFIELD     MOSUNNY   54  34  47 SE12      30.48R
FORT COLLINS   PTSUNNY   54  36  50 SW7       30.47R
LONGMONT       FAIR      56  36  47 S3        30.48S
$$

COZ041-046-047-076>085-087-088-251600-
...PIKES PEAK/PALMER DIVIDE AND SOUTHERN FOOTHILLS...

CITY           SKY/WX    TMP DP  RH WIND       PRES   REMARKS
COLO. SPRINGS  FAIR      52  30  43 N9        30.51R
A. F. ACADEMY  FAIR      50  29  45 N13       30.50R
SCHRIEVER AFB  NOT AVBL
ELLICOTT       NOT AVBL
FALCON         FAIR      48  30  49 N13       30.51R
FORT CARSON    FAIR      55  29  37 N15G21    30.48R
LIMON          FAIR      53  34  48 N17G25    30.47R
MONUMENT HILL  FAIR      45  30  57 N8        30.53R
TRINIDAD       FAIR      51  35  54 NW7       30.48R
$$

COZ042>045-048>051-090-091-251600-
...NORTHEAST COLORADO...

CITY           SKY/WX    TMP DP  RH WIND       PRES   REMARKS
GREELEY ARPT   FAIR      54  36  50 NW8       30.47R
AKRON          FAIR      53  36  52 N14G22    30.44R
BURLINGTON     FAIR      56  37  49 N22G28    30.40R
WRAY           NOT AVBL
STERLING       FAIR      55  37  50 N17       30.41S
HOLYOKE        FAIR      59  39  47 NW18G31   30.40R
FORT MORGAN    CLOUDY    55  33  44 NW10      30.45R
$$

COZ086-089-092>099-251600-
...SOUTHEAST COLORADO...

CITY           SKY/WX    TMP DP  RH WIND       PRES   REMARKS
PUEBLO         FAIR      58  32  37 NE13      30.47R
LA JUNTA       FAIR      60  35  39 NW13      30.44R
LAMAR          FAIR      60  38  43 NW10G20   30.39R
SPRINGFIELD    NOT AVBL
$$




USA.gov is the U.S. government's official web portal to all federal, state and local government web resources and services.